LVS073 SAEM-SADF

Flight info

Callsign LVS073
Flight time 2h 30m
Altitude 9000
Route PULPA TENIL EZE PAL
Aircraft BR23/L-SFG/S

Departure

Time 2026-05-05 18:30
Airport Miramar Airport (SAEM)

Arrival

Time 2026-05-05 21:00
Airport San Fernando Airport (SADF)
Time Latitude Longitude Altitude Speed Heading
2026-05-05 18:26 -38.22792 -57.87394 83 ft 0 kts 60°
2026-05-05 18:28 -38.22788 -57.87359 76 ft 11 kts 93°
2026-05-05 18:28 -38.22794 -57.87221 77 ft 15 kts 96°
2026-05-05 18:29 -38.22785 -57.87104 75 ft 6 kts 113°
2026-05-05 18:29 -38.22798 -57.87095 67 ft 0 kts 180°
2026-05-05 18:29 -38.22802 -57.87094 69 ft 10 kts 175°
2026-05-05 18:29 -38.23131 -57.87089 117 ft 71 kts 181°
2026-05-05 18:30 -38.23670 -57.87085 307 ft 81 kts 179°
2026-05-05 18:30 -38.24253 -57.87046 508 ft 87 kts 171°
2026-05-05 18:30 -38.24797 -57.86663 749 ft 94 kts 136°
2026-05-05 18:30 -38.25244 -57.85979 856 ft 104 kts 117°
2026-05-05 18:31 -38.25485 -57.85188 1226 ft 87 kts 104°
2026-05-05 18:31 -38.25635 -57.84477 1575 ft 83 kts 106°
2026-05-05 18:31 -38.25778 -57.83764 1879 ft 83 kts 104°
2026-05-05 18:31 -38.25873 -57.83034 2193 ft 85 kts 96°
2026-05-05 18:32 -38.25892 -57.82268 2522 ft 87 kts 82°
2026-05-05 18:32 -38.25520 -57.81706 2855 ft 85 kts 24°
2026-05-05 18:32 -38.24963 -57.81560 3208 ft 81 kts 355°
2026-05-05 18:32 -38.24401 -57.81502 3557 ft 80 kts 358°
2026-05-05 18:33 -38.23850 -57.81448 3884 ft 79 kts 358°
2026-05-05 18:33 -38.23315 -57.81390 4203 ft 78 kts 357°
2026-05-05 18:33 -38.22781 -57.81333 4511 ft 76 kts 356°
2026-05-05 18:33 -38.22256 -57.81279 4813 ft 75 kts 356°
2026-05-05 18:34 -38.21735 -57.81226 5090 ft 76 kts 355°
2026-05-05 18:34 -38.21207 -57.81171 5341 ft 77 kts 353°
2026-05-05 18:34 -38.20670 -57.81110 5598 ft 78 kts 353°
2026-05-05 18:34 -38.20124 -57.81054 5863 ft 79 kts 352°
2026-05-05 18:35 -38.19575 -57.80993 6116 ft 81 kts 351°
2026-05-05 18:35 -38.19008 -57.80931 6362 ft 82 kts 350°
2026-05-05 18:35 -38.18433 -57.80869 6601 ft 83 kts 349°
2026-05-05 18:35 -38.17853 -57.80805 6848 ft 84 kts 348°
2026-05-05 18:36 -38.17277 -57.80743 7078 ft 84 kts 347°
2026-05-05 18:36 -38.16691 -57.80680 7294 ft 84 kts 346°
2026-05-05 18:36 -38.16101 -57.80614 7499 ft 85 kts 345°
2026-05-05 18:36 -38.15508 -57.80550 7722 ft 86 kts 344°
2026-05-05 18:37 -38.14906 -57.80483 7954 ft 87 kts 344°
2026-05-05 18:37 -38.14298 -57.80416 8143 ft 88 kts 343°
2026-05-05 18:37 -38.13700 -57.80350 8360 ft 87 kts 342°
2026-05-05 18:37 -38.13094 -57.80284 8583 ft 87 kts 341°
2026-05-05 18:38 -38.12484 -57.80219 8796 ft 89 kts 340°
2026-05-05 18:38 -38.11863 -57.80153 8976 ft 92 kts 339°
2026-05-05 18:38 -38.11177 -57.80088 9001 ft 105 kts 343°
2026-05-05 18:38 -38.10426 -57.80001 9003 ft 109 kts 344°
2026-05-05 18:39 -38.09671 -57.79913 8994 ft 109 kts 344°
2026-05-05 18:39 -38.08919 -57.79828 8994 ft 108 kts 344°
2026-05-05 18:39 -38.08168 -57.79745 8992 ft 108 kts 344°
2026-05-05 18:39 -38.07416 -57.79662 8997 ft 109 kts 344°
2026-05-05 18:40 -38.06670 -57.79581 8994 ft 109 kts 344°
2026-05-05 18:40 -38.05913 -57.79499 8995 ft 110 kts 344°
2026-05-05 18:40 -38.05154 -57.79416 9002 ft 109 kts 344°
2026-05-05 18:40 -38.04394 -57.79335 8994 ft 110 kts 344°
2026-05-05 18:41 -38.03638 -57.79250 8996 ft 108 kts 344°
2026-05-05 18:41 -38.02889 -57.79168 9002 ft 108 kts 344°
2026-05-05 18:41 -38.02145 -57.79086 8998 ft 107 kts 343°
2026-05-05 18:41 -38.01415 -57.79007 8997 ft 107 kts 343°
2026-05-05 18:42 -38.00671 -57.78926 8996 ft 108 kts 344°
2026-05-05 18:42 -37.99927 -57.78844 8996 ft 107 kts 344°
2026-05-05 18:42 -37.99184 -57.78765 8994 ft 107 kts 345°
2026-05-05 18:42 -37.98444 -57.78684 9005 ft 106 kts 344°
2026-05-05 18:43 -37.97705 -57.78605 9000 ft 107 kts 345°
2026-05-05 18:43 -37.96965 -57.78525 9004 ft 107 kts 344°
2026-05-05 18:43 -37.96218 -57.78444 9006 ft 108 kts 345°
2026-05-05 18:43 -37.95469 -57.78363 9013 ft 110 kts 345°
2026-05-05 18:44 -37.94705 -57.78281 9005 ft 110 kts 345°
2026-05-05 18:44 -37.93939 -57.78195 8997 ft 110 kts 345°
2026-05-05 18:44 -37.93188 -57.78113 8998 ft 108 kts 344°
2026-05-05 18:44 -37.92443 -57.78033 9001 ft 107 kts 344°
2026-05-05 18:45 -37.91699 -57.77954 8994 ft 108 kts 345°
2026-05-05 18:45 -37.90950 -57.77873 9004 ft 108 kts 344°
2026-05-05 18:45 -37.90197 -57.77792 9003 ft 108 kts 345°
2026-05-05 18:45 -37.89449 -57.77711 8998 ft 108 kts 345°
2026-05-05 18:46 -37.88697 -57.77628 9000 ft 108 kts 345°
2026-05-05 18:46 -37.87946 -57.77546 8996 ft 108 kts 345°
2026-05-05 18:46 -37.87194 -57.77465 8998 ft 109 kts 345°
2026-05-05 18:46 -37.86446 -57.77385 8998 ft 109 kts 345°
2026-05-05 18:47 -37.85934 -57.77330 9000 ft 109 kts 345°
2026-05-05 18:47 -37.84938 -57.77221 9002 ft 108 kts 345°
2026-05-05 18:47 -37.84183 -57.77140 8997 ft 109 kts 345°
2026-05-05 18:47 -37.83429 -57.77058 9001 ft 109 kts 345°
2026-05-05 18:48 -37.82931 -57.77004 8996 ft 108 kts 345°
2026-05-05 18:48 -37.82178 -57.76922 8997 ft 108 kts 345°
2026-05-05 18:48 -37.81427 -57.76841 8997 ft 108 kts 345°
2026-05-05 18:48 -37.80680 -57.76761 8997 ft 108 kts 344°
2026-05-05 18:49 -37.79931 -57.76680 8993 ft 108 kts 345°
2026-05-05 18:49 -37.79179 -57.76599 8987 ft 108 kts 345°
2026-05-05 18:49 -37.78426 -57.76518 8992 ft 108 kts 345°
2026-05-05 18:49 -37.77672 -57.76436 8986 ft 108 kts 345°
2026-05-05 18:50 -37.76931 -57.76356 8985 ft 108 kts 345°
2026-05-05 18:50 -37.76181 -57.76275 8984 ft 108 kts 345°
2026-05-05 18:50 -37.75429 -57.76193 8979 ft 108 kts 345°
2026-05-05 18:50 -37.74682 -57.76113 8980 ft 108 kts 345°
2026-05-05 18:51 -37.73939 -57.76033 8978 ft 107 kts 344°
2026-05-05 18:51 -37.73195 -57.75952 8977 ft 107 kts 344°
2026-05-05 18:51 -37.72452 -57.75873 8972 ft 107 kts 344°
2026-05-05 18:51 -37.71711 -57.75793 8973 ft 107 kts 344°
2026-05-05 18:52 -37.70968 -57.75713 8972 ft 107 kts 344°
2026-05-05 18:52 -37.70225 -57.75633 8968 ft 107 kts 345°
2026-05-05 18:52 -37.69492 -57.75554 8973 ft 107 kts 345°
2026-05-05 18:52 -37.68751 -57.75474 8971 ft 106 kts 344°
2026-05-05 18:53 -37.68013 -57.75395 8968 ft 107 kts 345°
2026-05-05 18:53 -37.67271 -57.75316 8968 ft 107 kts 345°
2026-05-05 18:53 -37.66529 -57.75235 8966 ft 107 kts 345°
2026-05-05 18:53 -37.65788 -57.75155 8968 ft 107 kts 345°
2026-05-05 18:54 -37.65049 -57.75075 8962 ft 106 kts 345°
2026-05-05 18:54 -37.64311 -57.74997 8962 ft 106 kts 345°
2026-05-05 18:54 -37.63572 -57.74917 8962 ft 107 kts 345°
2026-05-05 18:54 -37.62833 -57.74837 8962 ft 106 kts 345°
2026-05-05 18:55 -37.62094 -57.74758 8963 ft 107 kts 345°
2026-05-05 18:55 -37.61353 -57.74679 8961 ft 107 kts 345°
2026-05-05 18:55 -37.60611 -57.74599 8968 ft 107 kts 345°
2026-05-05 18:55 -37.59868 -57.74519 8963 ft 107 kts 345°
2026-05-05 18:56 -37.59122 -57.74439 8959 ft 108 kts 345°
2026-05-05 18:56 -37.58374 -57.74358 8964 ft 108 kts 345°
2026-05-05 18:56 -37.57635 -57.74279 8966 ft 108 kts 345°
2026-05-05 18:56 -37.56888 -57.74198 8964 ft 107 kts 345°
2026-05-05 18:57 -37.56146 -57.74118 8970 ft 106 kts 345°
2026-05-05 18:57 -37.55409 -57.74040 8965 ft 106 kts 345°
2026-05-05 18:57 -37.54672 -57.73961 8964 ft 106 kts 345°
2026-05-05 18:57 -37.53932 -57.73882 8966 ft 107 kts 345°
2026-05-05 18:58 -37.53191 -57.73802 8964 ft 107 kts 345°
2026-05-05 18:58 -37.52446 -57.73723 8967 ft 107 kts 345°
2026-05-05 18:58 -37.51700 -57.73643 8968 ft 108 kts 344°
2026-05-05 18:58 -37.50952 -57.73562 8964 ft 108 kts 345°
2026-05-05 18:59 -37.50207 -57.73482 8968 ft 107 kts 344°
2026-05-05 18:59 -37.49472 -57.73403 8962 ft 107 kts 344°
2026-05-05 18:59 -37.48729 -57.73323 8969 ft 107 kts 344°
2026-05-05 18:59 -37.47988 -57.73245 8971 ft 107 kts 344°
2026-05-05 19:00 -37.47245 -57.73165 8963 ft 107 kts 344°
2026-05-05 19:00 -37.46502 -57.73085 8966 ft 107 kts 344°
2026-05-05 19:00 -37.45761 -57.73006 8966 ft 107 kts 344°
2026-05-05 19:00 -37.45021 -57.72926 8961 ft 106 kts 344°
2026-05-05 19:01 -37.44282 -57.72847 8964 ft 106 kts 344°
2026-05-05 19:01 -37.43545 -57.72768 8961 ft 106 kts 344°
2026-05-05 19:01 -37.42806 -57.72690 8957 ft 107 kts 344°
2026-05-05 19:01 -37.42067 -57.72612 8963 ft 107 kts 344°
2026-05-05 19:02 -37.41336 -57.72532 8958 ft 107 kts 344°
2026-05-05 19:02 -37.40595 -57.72453 8960 ft 107 kts 344°
2026-05-05 19:02 -37.39856 -57.72375 8961 ft 106 kts 344°
2026-05-05 19:02 -37.39117 -57.72295 8964 ft 106 kts 344°
2026-05-05 19:03 -37.38382 -57.72216 8961 ft 105 kts 344°
2026-05-05 19:03 -37.37655 -57.72139 8961 ft 105 kts 344°
2026-05-05 19:03 -37.36927 -57.72061 8964 ft 105 kts 344°
2026-05-05 19:03 -37.36196 -57.71984 8963 ft 105 kts 344°
2026-05-05 19:04 -37.35476 -57.71907 8962 ft 105 kts 344°
2026-05-05 19:04 -37.34746 -57.71829 8965 ft 106 kts 345°
2026-05-05 19:04 -37.34013 -57.71751 8964 ft 106 kts 345°
2026-05-05 19:04 -37.33280 -57.71672 8963 ft 106 kts 345°
2026-05-05 19:05 -37.32530 -57.71592 8961 ft 105 kts 345°
2026-05-05 19:05 -37.31817 -57.71516 8964 ft 105 kts 345°
2026-05-05 19:05 -37.31085 -57.71438 8963 ft 105 kts 345°
2026-05-05 19:05 -37.30357 -57.71360 8963 ft 105 kts 345°
2026-05-05 19:06 -37.29628 -57.71283 8968 ft 105 kts 345°
2026-05-05 19:06 -37.28900 -57.71206 8968 ft 105 kts 345°
2026-05-05 19:06 -37.28182 -57.71129 8967 ft 105 kts 345°
2026-05-05 19:06 -37.27454 -57.71051 8967 ft 105 kts 345°
2026-05-05 19:07 -37.26722 -57.70974 8967 ft 105 kts 346°
2026-05-05 19:07 -37.25991 -57.70897 8966 ft 105 kts 346°
2026-05-05 19:07 -37.25260 -57.70818 8966 ft 105 kts 346°
2026-05-05 19:07 -37.24533 -57.70741 8964 ft 105 kts 346°
2026-05-05 19:08 -37.23805 -57.70663 8960 ft 105 kts 346°
2026-05-05 19:08 -37.23088 -57.70588 8961 ft 105 kts 346°
2026-05-05 19:08 -37.22365 -57.70510 8961 ft 104 kts 346°
2026-05-05 19:08 -37.21640 -57.70433 8963 ft 104 kts 346°
2026-05-05 19:09 -37.20915 -57.70356 8961 ft 104 kts 346°
2026-05-05 19:09 -37.20190 -57.70279 8961 ft 104 kts 346°
2026-05-05 19:09 -37.19466 -57.70202 8962 ft 104 kts 346°
2026-05-05 19:09 -37.18742 -57.70125 8961 ft 104 kts 347°
2026-05-05 19:10 -37.18015 -57.70048 8962 ft 105 kts 347°
2026-05-05 19:10 -37.17299 -57.69972 8963 ft 105 kts 347°
2026-05-05 19:10 -37.16574 -57.69895 8964 ft 105 kts 347°
2026-05-05 19:10 -37.15850 -57.69818 8960 ft 104 kts 347°
2026-05-05 19:11 -37.15126 -57.69741 8961 ft 104 kts 347°
2026-05-05 19:11 -37.14404 -57.69663 8963 ft 104 kts 347°
2026-05-05 19:11 -37.13685 -57.69588 8966 ft 104 kts 347°
2026-05-05 19:11 -37.12963 -57.69511 8966 ft 104 kts 347°
2026-05-05 19:12 -37.12240 -57.69435 8963 ft 104 kts 347°
2026-05-05 19:12 -37.11517 -57.69358 8967 ft 104 kts 347°
2026-05-05 19:12 -37.10795 -57.69282 8963 ft 104 kts 347°
2026-05-05 19:12 -37.10071 -57.69205 8964 ft 104 kts 347°
2026-05-05 19:13 -37.09357 -57.69128 8966 ft 104 kts 347°
2026-05-05 19:13 -37.08636 -57.69053 8963 ft 104 kts 347°
2026-05-05 19:13 -37.07918 -57.68976 8964 ft 103 kts 347°
2026-05-05 19:13 -37.07200 -57.68900 8965 ft 103 kts 348°
2026-05-05 19:14 -37.06483 -57.68825 8963 ft 104 kts 348°
2026-05-05 19:14 -37.05765 -57.68748 8963 ft 104 kts 348°
2026-05-05 19:14 -37.05046 -57.68672 8966 ft 104 kts 348°
2026-05-05 19:14 -37.04328 -57.68597 8966 ft 104 kts 348°
2026-05-05 19:15 -37.03611 -57.68520 8965 ft 103 kts 348°
2026-05-05 19:15 -37.02902 -57.68445 8965 ft 103 kts 348°
2026-05-05 19:15 -37.02181 -57.68369 8962 ft 104 kts 348°
2026-05-05 19:15 -37.01462 -57.68293 8965 ft 103 kts 348°
2026-05-05 19:16 -37.00742 -57.68217 8965 ft 104 kts 348°
2026-05-05 19:16 -37.00021 -57.68141 8965 ft 104 kts 348°
2026-05-05 19:16 -36.99308 -57.68101 8969 ft 98 kts 338°
2026-05-05 19:16 -36.98627 -57.68185 8967 ft 99 kts 339°
2026-05-05 19:17 -36.97939 -57.68259 8965 ft 99 kts 339°
2026-05-05 19:17 -36.97260 -57.68332 8964 ft 99 kts 339°
2026-05-05 19:17 -36.96572 -57.68405 8965 ft 99 kts 339°
2026-05-05 19:17 -36.95881 -57.68479 8967 ft 100 kts 339°
2026-05-05 19:18 -36.95190 -57.68553 8965 ft 100 kts 339°
2026-05-05 19:18 -36.94499 -57.68628 8965 ft 100 kts 339°
2026-05-05 19:18 -36.93804 -57.68701 8964 ft 100 kts 339°
2026-05-05 19:18 -36.93113 -57.68775 8964 ft 100 kts 339°
2026-05-05 19:19 -36.92422 -57.68850 8966 ft 100 kts 339°
2026-05-05 19:19 -36.91728 -57.68924 8968 ft 100 kts 339°
2026-05-05 19:19 -36.91037 -57.68997 8968 ft 100 kts 339°
2026-05-05 19:19 -36.90347 -57.69071 8966 ft 100 kts 339°
2026-05-05 19:20 -36.89653 -57.69146 8968 ft 100 kts 339°
2026-05-05 19:20 -36.88970 -57.69219 8967 ft 100 kts 339°
2026-05-05 19:20 -36.88280 -57.69292 8965 ft 99 kts 339°
2026-05-05 19:20 -36.87588 -57.69367 8966 ft 100 kts 340°
2026-05-05 19:21 -36.86896 -57.69441 8965 ft 100 kts 339°
2026-05-05 19:21 -36.86202 -57.69515 8963 ft 100 kts 339°
2026-05-05 19:21 -36.85508 -57.69589 8961 ft 100 kts 340°
2026-05-05 19:21 -36.84812 -57.69664 8963 ft 100 kts 340°
2026-05-05 19:22 -36.84125 -57.69737 8967 ft 100 kts 340°
2026-05-05 19:22 -36.83429 -57.69810 8967 ft 100 kts 340°
2026-05-05 19:22 -36.82725 -57.69886 8967 ft 100 kts 340°
2026-05-05 19:22 -36.82031 -57.69960 8966 ft 100 kts 340°
2026-05-05 19:23 -36.81336 -57.70034 8967 ft 100 kts 340°
2026-05-05 19:23 -36.80642 -57.70108 8969 ft 100 kts 340°
2026-05-05 19:23 -36.79956 -57.70182 8966 ft 100 kts 340°
2026-05-05 19:23 -36.79261 -57.70253 8968 ft 100 kts 341°
2026-05-05 19:24 -36.78566 -57.70329 8961 ft 100 kts 341°
2026-05-05 19:24 -36.77869 -57.70404 8964 ft 100 kts 340°
2026-05-05 19:24 -36.77171 -57.70478 8964 ft 101 kts 341°
2026-05-05 19:24 -36.76473 -57.70553 8964 ft 101 kts 341°
2026-05-05 19:25 -36.75773 -57.70628 8965 ft 101 kts 341°
2026-05-05 19:25 -36.75072 -57.70702 8967 ft 101 kts 341°
2026-05-05 19:25 -36.74373 -57.70777 8966 ft 101 kts 341°
2026-05-05 19:25 -36.73670 -57.70851 8967 ft 101 kts 341°
2026-05-05 19:26 -36.72968 -57.70926 8967 ft 101 kts 341°
2026-05-05 19:26 -36.72268 -57.71000 8967 ft 101 kts 341°
2026-05-05 19:26 -36.71577 -57.71074 8967 ft 101 kts 342°
2026-05-05 19:26 -36.70873 -57.71149 8968 ft 101 kts 342°
2026-05-05 19:27 -36.70174 -57.71224 8966 ft 101 kts 342°
2026-05-05 19:27 -36.69470 -57.71298 8964 ft 101 kts 342°
2026-05-05 19:27 -36.68769 -57.71373 8965 ft 101 kts 342°
2026-05-05 19:27 -36.68065 -57.71448 8965 ft 102 kts 342°
2026-05-05 19:28 -36.67357 -57.71524 8969 ft 102 kts 342°
2026-05-05 19:28 -36.66650 -57.71598 8969 ft 102 kts 342°
2026-05-05 19:28 -36.65945 -57.71673 8965 ft 102 kts 342°
2026-05-05 19:28 -36.65237 -57.71749 8963 ft 102 kts 342°
2026-05-05 19:29 -36.64531 -57.71823 8964 ft 102 kts 342°
2026-05-05 19:29 -36.63825 -57.71899 8965 ft 102 kts 342°
2026-05-05 19:29 -36.63128 -57.71973 8966 ft 102 kts 343°
2026-05-05 19:29 -36.62423 -57.72048 8964 ft 102 kts 343°
2026-05-05 19:30 -36.61720 -57.72123 8964 ft 102 kts 343°
2026-05-05 19:30 -36.61016 -57.72197 8964 ft 102 kts 343°
2026-05-05 19:30 -36.60310 -57.72273 8965 ft 101 kts 343°
2026-05-05 19:30 -36.59608 -57.72346 8964 ft 101 kts 343°
2026-05-05 19:31 -36.58901 -57.72422 8963 ft 102 kts 343°
2026-05-05 19:31 -36.58196 -57.72497 8968 ft 101 kts 343°
2026-05-05 19:31 -36.57495 -57.72571 8963 ft 101 kts 343°
2026-05-05 19:31 -36.56792 -57.72645 8961 ft 101 kts 343°
2026-05-05 19:32 -36.56085 -57.72720 8966 ft 101 kts 343°
2026-05-05 19:32 -36.55393 -57.72794 8965 ft 101 kts 343°
2026-05-05 19:32 -36.54689 -57.72868 8964 ft 101 kts 343°
2026-05-05 19:32 -36.53985 -57.72943 8965 ft 101 kts 343°
2026-05-05 19:33 -36.53282 -57.73018 8962 ft 101 kts 343°
2026-05-05 19:33 -36.52580 -57.73092 8963 ft 101 kts 343°
2026-05-05 19:33 -36.51879 -57.73166 8964 ft 101 kts 343°
2026-05-05 19:33 -36.51178 -57.73241 8964 ft 101 kts 343°
2026-05-05 19:34 -36.50475 -57.73316 8961 ft 101 kts 343°
2026-05-05 19:34 -36.49772 -57.73389 8960 ft 101 kts 343°
2026-05-05 19:34 -36.49069 -57.73464 8962 ft 101 kts 344°
2026-05-05 19:35 -36.47664 -57.73613 8962 ft 101 kts 344°
2026-05-05 19:35 -36.46960 -57.73687 8961 ft 101 kts 344°
2026-05-05 19:35 -36.46257 -57.73761 8962 ft 101 kts 344°
2026-05-05 19:35 -36.45554 -57.73836 8961 ft 101 kts 344°
2026-05-05 19:36 -36.44851 -57.73910 8961 ft 101 kts 344°
2026-05-05 19:36 -36.44157 -57.73984 8963 ft 101 kts 344°
2026-05-05 19:36 -36.43447 -57.74059 8963 ft 101 kts 344°
2026-05-05 19:36 -36.42982 -57.74108 8963 ft 101 kts 344°
2026-05-05 19:37 -36.42053 -57.74206 8963 ft 101 kts 344°
2026-05-05 19:37 -36.41351 -57.74280 8962 ft 101 kts 344°
2026-05-05 19:37 -36.40649 -57.74354 8963 ft 101 kts 344°
2026-05-05 19:37 -36.39946 -57.74428 8962 ft 101 kts 343°
2026-05-05 19:38 -36.39246 -57.74502 8957 ft 101 kts 343°
2026-05-05 19:38 -36.38774 -57.74552 8959 ft 101 kts 343°
2026-05-05 19:38 -36.38082 -57.74625 8958 ft 101 kts 343°
2026-05-05 19:38 -36.37381 -57.74699 8956 ft 101 kts 343°
2026-05-05 19:39 -36.36683 -57.74773 8958 ft 101 kts 343°
2026-05-05 19:39 -36.35986 -57.74846 8962 ft 101 kts 343°
2026-05-05 19:39 -36.35286 -57.74920 8966 ft 101 kts 343°
2026-05-05 19:39 -36.34587 -57.74994 8961 ft 101 kts 343°
2026-05-05 19:40 -36.33886 -57.75068 8963 ft 101 kts 343°
2026-05-05 19:40 -36.33186 -57.75141 8960 ft 101 kts 343°
2026-05-05 19:40 -36.32487 -57.75216 8960 ft 101 kts 343°
2026-05-05 19:40 -36.31786 -57.75289 8960 ft 101 kts 343°
2026-05-05 19:41 -36.31086 -57.75363 8964 ft 101 kts 343°
2026-05-05 19:41 -36.30385 -57.75437 8962 ft 101 kts 343°
2026-05-05 19:41 -36.29694 -57.75509 8962 ft 101 kts 343°
2026-05-05 19:41 -36.28996 -57.75583 8963 ft 101 kts 343°
2026-05-05 19:42 -36.28299 -57.75656 8963 ft 100 kts 343°
2026-05-05 19:42 -36.27604 -57.75729 8961 ft 100 kts 343°
2026-05-05 19:42 -36.26908 -57.75803 8960 ft 100 kts 343°
2026-05-05 19:42 -36.26213 -57.75876 8959 ft 100 kts 343°
2026-05-05 19:43 -36.25518 -57.75949 8960 ft 100 kts 343°
2026-05-05 19:43 -36.24822 -57.76022 8958 ft 100 kts 343°
2026-05-05 19:43 -36.24131 -57.76095 8960 ft 100 kts 343°
2026-05-05 19:43 -36.23437 -57.76168 8960 ft 100 kts 343°
2026-05-05 19:44 -36.22750 -57.76240 8960 ft 100 kts 343°
2026-05-05 19:44 -36.22055 -57.76313 8956 ft 100 kts 343°
2026-05-05 19:44 -36.21361 -57.76386 8956 ft 100 kts 343°
2026-05-05 19:44 -36.20665 -57.76459 8956 ft 100 kts 343°
2026-05-05 19:45 -36.19970 -57.76532 8959 ft 100 kts 342°
2026-05-05 19:45 -36.19272 -57.76606 8958 ft 100 kts 343°
2026-05-05 19:45 -36.18577 -57.76679 8961 ft 100 kts 342°
2026-05-05 19:45 -36.17879 -57.76752 8961 ft 100 kts 342°
2026-05-05 19:46 -36.17181 -57.76825 8958 ft 100 kts 342°
2026-05-05 19:46 -36.16486 -57.76899 8955 ft 100 kts 342°
2026-05-05 19:46 -36.15790 -57.76972 8956 ft 101 kts 342°
2026-05-05 19:46 -36.15091 -57.77045 8958 ft 101 kts 342°
2026-05-05 19:47 -36.14391 -57.77118 8954 ft 101 kts 342°
2026-05-05 19:47 -36.13699 -57.77190 8956 ft 101 kts 342°
2026-05-05 19:47 -36.12999 -57.77263 8955 ft 101 kts 342°
2026-05-05 19:47 -36.12298 -57.77337 8956 ft 101 kts 342°
2026-05-05 19:48 -36.11598 -57.77411 8956 ft 101 kts 342°
2026-05-05 19:48 -36.10899 -57.77485 8961 ft 101 kts 342°
2026-05-05 19:48 -36.10195 -57.77558 8958 ft 101 kts 342°
2026-05-05 19:48 -36.09493 -57.77631 8959 ft 101 kts 342°
2026-05-05 19:49 -36.08792 -57.77705 8954 ft 101 kts 342°
2026-05-05 19:49 -36.08100 -57.77777 8954 ft 101 kts 342°
2026-05-05 19:49 -36.07397 -57.77851 8955 ft 101 kts 342°
2026-05-05 19:49 -36.06697 -57.77924 8956 ft 101 kts 342°
2026-05-05 19:50 -36.05995 -57.77998 8957 ft 101 kts 342°
2026-05-05 19:50 -36.05295 -57.78071 8957 ft 101 kts 342°
2026-05-05 19:50 -36.04593 -57.78145 8958 ft 101 kts 342°
2026-05-05 19:50 -36.03893 -57.78217 8956 ft 101 kts 342°
2026-05-05 19:51 -36.03195 -57.78291 8963 ft 101 kts 342°
2026-05-05 19:51 -36.02494 -57.78364 8960 ft 101 kts 342°
2026-05-05 19:51 -36.01797 -57.78436 8956 ft 101 kts 342°
2026-05-05 19:51 -36.01099 -57.78510 8962 ft 101 kts 341°
2026-05-05 19:52 -36.00401 -57.78583 8959 ft 101 kts 341°
2026-05-05 19:52 -35.99701 -57.78656 8959 ft 101 kts 341°
2026-05-05 19:52 -35.99011 -57.78728 8955 ft 101 kts 341°
2026-05-05 19:52 -35.98309 -57.78802 8958 ft 101 kts 341°
2026-05-05 19:53 -35.97608 -57.78874 8958 ft 101 kts 341°
2026-05-05 19:53 -35.96910 -57.78947 8957 ft 101 kts 341°
2026-05-05 19:53 -35.96213 -57.79020 8961 ft 101 kts 341°
2026-05-05 19:53 -35.95514 -57.79093 8959 ft 101 kts 341°
2026-05-05 19:54 -35.94814 -57.79167 8959 ft 101 kts 341°
2026-05-05 19:54 -35.94114 -57.79240 8955 ft 101 kts 341°
2026-05-05 19:54 -35.93887 -57.79263 8958 ft 101 kts 342°
2026-05-05 19:54 -35.93535 -57.79300 8959 ft 101 kts 341°
2026-05-05 19:55 -35.92837 -57.79373 8959 ft 101 kts 342°
2026-05-05 19:55 -35.92139 -57.79445 8962 ft 101 kts 341°
2026-05-05 19:55 -35.91448 -57.79518 8962 ft 101 kts 342°
2026-05-05 19:55 -35.90751 -57.79591 8960 ft 100 kts 341°
2026-05-05 19:56 -35.90053 -57.79663 8962 ft 101 kts 342°
2026-05-05 19:56 -35.89354 -57.79736 8957 ft 101 kts 341°
2026-05-05 19:56 -35.88653 -57.79809 8959 ft 101 kts 341°
2026-05-05 19:56 -35.87953 -57.79881 8961 ft 101 kts 341°
2026-05-05 19:57 -35.87253 -57.79955 8958 ft 101 kts 341°
2026-05-05 19:57 -35.86552 -57.80029 8960 ft 101 kts 341°
2026-05-05 19:57 -35.85850 -57.80101 8956 ft 101 kts 341°
2026-05-05 19:57 -35.85149 -57.80174 8959 ft 101 kts 341°
2026-05-05 19:58 -35.84447 -57.80247 8954 ft 101 kts 341°
2026-05-05 19:58 -35.83746 -57.80319 8959 ft 101 kts 341°
2026-05-05 19:58 -35.83047 -57.80392 8959 ft 101 kts 341°
2026-05-05 19:58 -35.82342 -57.80430 8959 ft 104 kts 350°
2026-05-05 19:59 -35.81698 -57.80584 8960 ft 88 kts 311°
2026-05-05 19:59 -35.81212 -57.81045 8961 ft 89 kts 313°
2026-05-05 19:59 -35.80698 -57.81488 8962 ft 90 kts 315°
2026-05-05 19:59 -35.80179 -57.81908 8959 ft 91 kts 316°
2026-05-05 20:00 -35.79645 -57.82324 8960 ft 91 kts 316°
2026-05-05 20:00 -35.79107 -57.82735 8961 ft 91 kts 316°
2026-05-05 20:00 -35.78567 -57.83141 8963 ft 91 kts 317°
2026-05-05 20:00 -35.78023 -57.83550 8965 ft 91 kts 317°
2026-05-05 20:01 -35.77479 -57.83956 8969 ft 92 kts 317°
2026-05-05 20:01 -35.76933 -57.84363 8974 ft 92 kts 317°
2026-05-05 20:01 -35.76385 -57.84769 8969 ft 92 kts 317°
2026-05-05 20:01 -35.75845 -57.85170 8969 ft 91 kts 317°
2026-05-05 20:02 -35.75301 -57.85574 8969 ft 91 kts 317°
2026-05-05 20:02 -35.74756 -57.85979 8968 ft 91 kts 317°
2026-05-05 20:02 -35.74209 -57.86384 8969 ft 92 kts 317°
2026-05-05 20:02 -35.73661 -57.86790 8968 ft 92 kts 317°
2026-05-05 20:03 -35.73115 -57.87195 8964 ft 92 kts 317°
2026-05-05 20:03 -35.72565 -57.87602 8967 ft 92 kts 317°
2026-05-05 20:03 -35.72019 -57.88007 8967 ft 92 kts 317°
2026-05-05 20:03 -35.71471 -57.88413 8967 ft 92 kts 317°
2026-05-05 20:04 -35.70929 -57.88814 8973 ft 92 kts 317°
2026-05-05 20:04 -35.70380 -57.89220 8973 ft 92 kts 317°
2026-05-05 20:04 -35.69829 -57.89629 8969 ft 92 kts 317°
2026-05-05 20:04 -35.69279 -57.90036 8975 ft 92 kts 317°
2026-05-05 20:05 -35.68727 -57.90445 8975 ft 93 kts 317°
2026-05-05 20:05 -35.68173 -57.90855 8974 ft 93 kts 317°
2026-05-05 20:05 -35.67616 -57.91267 8973 ft 93 kts 317°
2026-05-05 20:05 -35.67062 -57.91676 8973 ft 93 kts 317°
2026-05-05 20:06 -35.66509 -57.92085 8977 ft 93 kts 317°
2026-05-05 20:06 -35.65957 -57.92494 8973 ft 93 kts 317°
2026-05-05 20:06 -35.65405 -57.92902 8973 ft 93 kts 317°
2026-05-05 20:06 -35.64852 -57.93311 8972 ft 93 kts 317°
2026-05-05 20:07 -35.64307 -57.93714 8970 ft 92 kts 317°
2026-05-05 20:07 -35.63754 -57.94123 8968 ft 93 kts 317°
2026-05-05 20:07 -35.63200 -57.94532 8969 ft 93 kts 317°
2026-05-05 20:07 -35.62648 -57.94939 8971 ft 93 kts 317°
2026-05-05 20:08 -35.62097 -57.95347 8970 ft 93 kts 317°
2026-05-05 20:08 -35.61544 -57.95756 8972 ft 93 kts 317°
2026-05-05 20:08 -35.60991 -57.96164 8971 ft 92 kts 317°
2026-05-05 20:08 -35.60440 -57.96571 8972 ft 93 kts 317°
2026-05-05 20:09 -35.59893 -57.96974 8973 ft 93 kts 317°
2026-05-05 20:09 -35.59341 -57.97382 8973 ft 93 kts 317°
2026-05-05 20:09 -35.58789 -57.97789 8974 ft 93 kts 317°
2026-05-05 20:09 -35.58237 -57.98196 8976 ft 92 kts 317°
2026-05-05 20:10 -35.57687 -57.98602 8969 ft 92 kts 318°
2026-05-05 20:10 -35.57135 -57.99010 8974 ft 92 kts 318°
2026-05-05 20:10 -35.56583 -57.99417 8970 ft 92 kts 318°
2026-05-05 20:10 -35.56032 -57.99823 8971 ft 92 kts 317°
2026-05-05 20:11 -35.55480 -58.00230 8973 ft 93 kts 318°
2026-05-05 20:11 -35.54928 -58.00637 8971 ft 93 kts 318°
2026-05-05 20:11 -35.54382 -58.01040 8972 ft 93 kts 317°
2026-05-05 20:11 -35.53830 -58.01447 8971 ft 92 kts 317°
2026-05-05 20:12 -35.53278 -58.01852 8975 ft 92 kts 317°
2026-05-05 20:12 -35.52726 -58.02260 8973 ft 93 kts 318°
2026-05-05 20:12 -35.52173 -58.02667 8975 ft 93 kts 317°
2026-05-05 20:12 -35.51620 -58.03075 8976 ft 93 kts 317°
2026-05-05 20:13 -35.51067 -58.03481 8975 ft 93 kts 317°
2026-05-05 20:13 -35.50515 -58.03888 8977 ft 93 kts 317°
2026-05-05 20:13 -35.49970 -58.04289 8971 ft 93 kts 318°
2026-05-05 20:13 -35.49416 -58.04697 8970 ft 93 kts 318°
2026-05-05 20:14 -35.48863 -58.05104 8972 ft 93 kts 318°
2026-05-05 20:14 -35.48308 -58.05512 8970 ft 93 kts 317°
2026-05-05 20:14 -35.47756 -58.05918 8973 ft 93 kts 318°
2026-05-05 20:14 -35.47203 -58.06326 8973 ft 93 kts 317°
2026-05-05 20:15 -35.46649 -58.06732 8973 ft 93 kts 317°
2026-05-05 20:15 -35.46097 -58.07138 8970 ft 93 kts 318°
2026-05-05 20:15 -35.45544 -58.07545 8972 ft 93 kts 318°
2026-05-05 20:15 -35.44998 -58.07946 8975 ft 93 kts 317°
2026-05-05 20:16 -35.44445 -58.08352 8973 ft 93 kts 318°
2026-05-05 20:16 -35.43893 -58.08759 8975 ft 93 kts 317°
2026-05-05 20:16 -35.43339 -58.09165 8972 ft 93 kts 317°
2026-05-05 20:16 -35.42784 -58.09573 8972 ft 93 kts 318°
2026-05-05 20:17 -35.42228 -58.09982 8974 ft 93 kts 317°
2026-05-05 20:17 -35.41673 -58.10389 8977 ft 93 kts 317°
2026-05-05 20:17 -35.41117 -58.10797 8975 ft 93 kts 317°
2026-05-05 20:17 -35.40564 -58.11203 8974 ft 93 kts 317°
2026-05-05 20:18 -35.40010 -58.11609 8973 ft 93 kts 317°
2026-05-05 20:18 -35.39455 -58.12017 8971 ft 93 kts 318°
2026-05-05 20:18 -35.38899 -58.12425 8974 ft 93 kts 318°
2026-05-05 20:18 -35.38352 -58.12827 8974 ft 93 kts 317°
2026-05-05 20:19 -35.37796 -58.13234 8977 ft 93 kts 318°
2026-05-05 20:19 -35.37231 -58.13648 8973 ft 93 kts 318°
2026-05-05 20:19 -35.36680 -58.14053 8975 ft 94 kts 318°
2026-05-05 20:19 -35.36121 -58.14462 8976 ft 94 kts 318°
2026-05-05 20:20 -35.35562 -58.14872 8977 ft 94 kts 318°
2026-05-05 20:20 -35.35003 -58.15282 8976 ft 94 kts 318°
2026-05-05 20:20 -35.34442 -58.15692 8978 ft 94 kts 318°
2026-05-05 20:20 -35.33882 -58.16104 8975 ft 94 kts 318°
2026-05-05 20:21 -35.33322 -58.16515 8974 ft 94 kts 318°
2026-05-05 20:21 -35.32761 -58.16925 8976 ft 94 kts 318°
2026-05-05 20:21 -35.32199 -58.17336 8973 ft 94 kts 318°
2026-05-05 20:21 -35.31638 -58.17746 8977 ft 94 kts 318°
2026-05-05 20:22 -35.31077 -58.18157 8976 ft 94 kts 318°
2026-05-05 20:22 -35.30516 -58.18568 8976 ft 94 kts 318°
2026-05-05 20:22 -35.29953 -58.18980 8977 ft 94 kts 318°
2026-05-05 20:22 -35.29397 -58.19386 8976 ft 94 kts 318°
2026-05-05 20:23 -35.28835 -58.19798 8977 ft 94 kts 318°
2026-05-05 20:23 -35.28272 -58.20209 8976 ft 94 kts 318°
2026-05-05 20:23 -35.27709 -58.20622 8976 ft 94 kts 319°
2026-05-05 20:23 -35.27148 -58.21032 8976 ft 94 kts 318°
2026-05-05 20:24 -35.26585 -58.21443 8980 ft 94 kts 318°
2026-05-05 20:24 -35.26022 -58.21854 8978 ft 94 kts 318°
2026-05-05 20:24 -35.25460 -58.22266 8978 ft 94 kts 318°
2026-05-05 20:24 -35.24896 -58.22677 8979 ft 94 kts 318°
2026-05-05 20:25 -35.24334 -58.23088 8975 ft 94 kts 318°
2026-05-05 20:25 -35.23771 -58.23500 8977 ft 94 kts 318°
2026-05-05 20:25 -35.23209 -58.23909 8975 ft 94 kts 318°
2026-05-05 20:25 -35.22647 -58.24321 8973 ft 94 kts 319°
2026-05-05 20:26 -35.22275 -58.24592 8975 ft 94 kts 318°
2026-05-05 20:26 -35.21712 -58.25003 8977 ft 94 kts 318°
2026-05-05 20:26 -35.21149 -58.25414 8976 ft 94 kts 319°
2026-05-05 20:26 -35.20402 -58.25959 8973 ft 94 kts 318°
2026-05-05 20:27 -35.20022 -58.26237 8975 ft 94 kts 318°
2026-05-05 20:27 -35.19464 -58.26643 8977 ft 94 kts 319°
2026-05-05 20:27 -35.18897 -58.27058 8977 ft 94 kts 319°
2026-05-05 20:27 -35.18332 -58.27470 8975 ft 94 kts 319°
2026-05-05 20:28 -35.17767 -58.27881 8973 ft 94 kts 319°
2026-05-05 20:28 -35.17204 -58.28291 8972 ft 94 kts 318°
2026-05-05 20:28 -35.16640 -58.28703 8973 ft 94 kts 319°
2026-05-05 20:28 -35.16076 -58.29114 8970 ft 94 kts 319°
2026-05-05 20:29 -35.15521 -58.29519 8971 ft 94 kts 319°
2026-05-05 20:29 -35.14956 -58.29930 8973 ft 94 kts 319°
2026-05-05 20:29 -35.14391 -58.30343 8973 ft 94 kts 319°
2026-05-05 20:29 -35.13825 -58.30755 8972 ft 94 kts 319°
2026-05-05 20:30 -35.13260 -58.31165 8975 ft 94 kts 319°
2026-05-05 20:30 -35.12694 -58.31577 8973 ft 95 kts 319°
2026-05-05 20:30 -35.12136 -58.31984 8973 ft 95 kts 319°
2026-05-05 20:30 -35.11570 -58.32396 8974 ft 95 kts 319°
2026-05-05 20:31 -35.11004 -58.32808 8969 ft 95 kts 319°
2026-05-05 20:31 -35.10436 -58.33222 8971 ft 95 kts 319°
2026-05-05 20:31 -35.09869 -58.33634 8970 ft 95 kts 319°
2026-05-05 20:31 -35.09301 -58.34047 8968 ft 95 kts 319°
2026-05-05 20:32 -35.08732 -58.34461 8973 ft 95 kts 319°
2026-05-05 20:32 -35.08164 -58.34874 8972 ft 95 kts 319°
2026-05-05 20:32 -35.07595 -58.35288 8974 ft 95 kts 319°
2026-05-05 20:32 -35.07025 -58.35702 8971 ft 95 kts 319°
2026-05-05 20:33 -35.06456 -58.36115 8968 ft 95 kts 319°
2026-05-05 20:33 -35.05881 -58.36535 8918 ft 100 kts 319°
2026-05-05 20:33 -35.05273 -58.36978 8807 ft 102 kts 320°
2026-05-05 20:33 -35.04661 -58.37421 8699 ft 103 kts 320°
2026-05-05 20:34 -35.04047 -58.37866 8591 ft 102 kts 320°
2026-05-05 20:34 -35.03444 -58.38303 8480 ft 102 kts 320°
2026-05-05 20:34 -35.02835 -58.38745 8367 ft 101 kts 320°
2026-05-05 20:34 -35.02230 -58.39183 8257 ft 101 kts 320°
2026-05-05 20:35 -35.01630 -58.39620 8145 ft 100 kts 320°
2026-05-05 20:35 -35.01032 -58.40053 8032 ft 99 kts 319°
2026-05-05 20:35 -35.00439 -58.40483 7918 ft 99 kts 320°
2026-05-05 20:35 -34.99850 -58.40910 7808 ft 98 kts 319°
2026-05-05 20:36 -34.99264 -58.41336 7692 ft 97 kts 320°
2026-05-05 20:36 -34.98691 -58.41751 7580 ft 97 kts 319°
2026-05-05 20:36 -34.98114 -58.42169 7468 ft 96 kts 319°
2026-05-05 20:36 -34.97542 -58.42585 7353 ft 95 kts 319°
2026-05-05 20:37 -34.96972 -58.42997 7242 ft 95 kts 319°
2026-05-05 20:37 -34.96407 -58.43406 7126 ft 94 kts 319°
2026-05-05 20:37 -34.95846 -58.43813 7015 ft 93 kts 319°
2026-05-05 20:37 -34.95300 -58.44207 6977 ft 88 kts 319°
2026-05-05 20:38 -34.94781 -58.44583 6970 ft 86 kts 319°
2026-05-05 20:38 -34.94271 -58.44954 6962 ft 85 kts 318°
2026-05-05 20:38 -34.93771 -58.45317 6966 ft 84 kts 318°
2026-05-05 20:38 -34.93264 -58.45684 6963 ft 85 kts 318°
2026-05-05 20:39 -34.92758 -58.46051 6966 ft 85 kts 318°
2026-05-05 20:39 -34.92252 -58.46418 6964 ft 85 kts 318°
2026-05-05 20:39 -34.91746 -58.46784 6963 ft 84 kts 318°
2026-05-05 20:39 -34.91241 -58.47150 6964 ft 85 kts 318°
2026-05-05 20:40 -34.90733 -58.47517 6962 ft 85 kts 318°
2026-05-05 20:40 -34.90227 -58.47883 6963 ft 85 kts 319°
2026-05-05 20:40 -34.89719 -58.48250 6963 ft 85 kts 319°
2026-05-05 20:40 -34.89213 -58.48617 6961 ft 85 kts 319°
2026-05-05 20:41 -34.88714 -58.48977 6964 ft 85 kts 321°
2026-05-05 20:41 -34.88127 -58.49256 6844 ft 95 kts 327°
2026-05-05 20:41 -34.87495 -58.49546 6690 ft 97 kts 328°
2026-05-05 20:41 -34.86872 -58.49826 6586 ft 94 kts 328°
2026-05-05 20:42 -34.86262 -58.50102 6477 ft 93 kts 327°
2026-05-05 20:42 -34.85655 -58.50376 6373 ft 93 kts 327°
2026-05-05 20:42 -34.85053 -58.50648 6258 ft 92 kts 328°
2026-05-05 20:42 -34.84447 -58.50922 6138 ft 94 kts 328°
2026-05-05 20:43 -34.83829 -58.51201 6020 ft 95 kts 329°
2026-05-05 20:43 -34.83200 -58.51485 5900 ft 97 kts 329°
2026-05-05 20:43 -34.82567 -58.51770 5780 ft 98 kts 330°
2026-05-05 20:43 -34.81926 -58.52059 5661 ft 99 kts 330°
2026-05-05 20:44 -34.81276 -58.52352 5543 ft 100 kts 331°
2026-05-05 20:44 -34.80611 -58.52651 5359 ft 105 kts 332°
2026-05-05 20:44 -34.79925 -58.52961 5137 ft 108 kts 333°
2026-05-05 20:44 -34.79203 -58.53285 4899 ft 110 kts 334°
2026-05-05 20:45 -34.77749 -58.53939 4431 ft 113 kts 336°
2026-05-05 20:45 -34.77006 -58.54273 4189 ft 114 kts 336°
2026-05-05 20:45 -34.76258 -58.54610 3953 ft 115 kts 337°
2026-05-05 20:46 -34.75503 -58.54949 3717 ft 116 kts 337°
2026-05-05 20:46 -34.74743 -58.55290 3483 ft 116 kts 338°
2026-05-05 20:46 -34.73988 -58.55631 3253 ft 118 kts 338°
2026-05-05 20:46 -34.73216 -58.55973 3022 ft 117 kts 338°
2026-05-05 20:47 -34.72485 -58.56302 3002 ft 108 kts 338°
2026-05-05 20:47 -34.71786 -58.56614 2992 ft 106 kts 338°
2026-05-05 20:47 -34.71104 -58.56925 2991 ft 106 kts 338°
2026-05-05 20:47 -34.70411 -58.57236 2991 ft 105 kts 338°
2026-05-05 20:48 -34.69723 -58.57545 2991 ft 105 kts 338°
2026-05-05 20:48 -34.69040 -58.57852 2988 ft 105 kts 338°
2026-05-05 20:48 -34.68364 -58.58155 2992 ft 105 kts 338°
2026-05-05 20:48 -34.67676 -58.58464 2988 ft 105 kts 338°
2026-05-05 20:49 -34.66992 -58.58771 2991 ft 105 kts 338°
2026-05-05 20:49 -34.66314 -58.59075 2992 ft 105 kts 338°
2026-05-05 20:49 -34.65627 -58.59382 2995 ft 105 kts 338°
2026-05-05 20:49 -34.64942 -58.59689 2991 ft 105 kts 338°
2026-05-05 20:50 -34.64259 -58.59995 2992 ft 104 kts 338°
2026-05-05 20:50 -34.63577 -58.60301 2991 ft 104 kts 338°
2026-05-05 20:50 -34.62896 -58.60605 2990 ft 104 kts 338°
2026-05-05 20:50 -34.62209 -58.60914 2939 ft 107 kts 339°
2026-05-05 20:51 -34.61515 -58.61225 2869 ft 107 kts 337°
2026-05-05 20:51 -34.60940 -58.61778 2797 ft 108 kts 305°
2026-05-05 20:51 -34.60539 -58.62545 2724 ft 108 kts 304°
2026-05-05 20:51 -34.60120 -58.63311 2658 ft 109 kts 304°
2026-05-05 20:52 -34.59702 -58.64079 2586 ft 109 kts 304°
2026-05-05 20:52 -34.59284 -58.64850 2508 ft 109 kts 304°
2026-05-05 20:52 -34.58872 -58.65606 2500 ft 106 kts 304°
2026-05-05 20:52 -34.58472 -58.66345 2503 ft 104 kts 304°
2026-05-05 20:53 -34.58089 -58.67049 2489 ft 98 kts 304°
2026-05-05 20:53 -34.57720 -58.67730 2487 ft 96 kts 304°
2026-05-05 20:53 -34.57353 -58.68405 2488 ft 96 kts 305°
2026-05-05 20:53 -34.56992 -58.69071 2490 ft 95 kts 304°
2026-05-05 20:54 -34.56626 -58.69744 2493 ft 95 kts 305°
2026-05-05 20:54 -34.56229 -58.70384 2488 ft 94 kts 321°
2026-05-05 20:54 -34.55633 -58.70627 2489 ft 93 kts
2026-05-05 20:54 -34.55026 -58.70355 2397 ft 93 kts 39°
2026-05-05 20:55 -34.54594 -58.69828 2251 ft 83 kts 42°
2026-05-05 20:55 -34.54195 -58.69361 2079 ft 76 kts 43°
2026-05-05 20:55 -34.53818 -58.68920 1888 ft 75 kts 43°
2026-05-05 20:55 -34.53445 -58.68482 1712 ft 75 kts 44°
2026-05-05 20:56 -34.53070 -58.68041 1547 ft 75 kts 44°
2026-05-05 20:56 -34.52694 -58.67600 1404 ft 76 kts 45°
2026-05-05 20:56 -34.52307 -58.67145 1262 ft 78 kts 45°
2026-05-05 20:56 -34.51922 -58.66691 1193 ft 73 kts 44°
2026-05-05 20:57 -34.51565 -58.66272 1192 ft 75 kts 46°
2026-05-05 20:57 -34.51173 -58.65810 1192 ft 81 kts 45°
2026-05-05 20:57 -34.50772 -58.65340 1196 ft 80 kts 45°
2026-05-05 20:57 -34.50378 -58.64877 1206 ft 81 kts 45°
2026-05-05 20:58 -34.49970 -58.64397 1205 ft 82 kts 45°
2026-05-05 20:58 -34.49549 -58.63908 1155 ft 83 kts 44°
2026-05-05 20:58 -34.49138 -58.63428 1037 ft 83 kts 44°
2026-05-05 20:58 -34.48719 -58.62948 880 ft 85 kts 46°
2026-05-05 20:59 -34.48304 -58.62449 724 ft 82 kts 47°
2026-05-05 20:59 -34.47898 -58.61967 590 ft 81 kts 46°
2026-05-05 20:59 -34.47486 -58.61494 483 ft 82 kts 49°
2026-05-05 20:59 -34.47082 -58.61008 391 ft 83 kts 47°
2026-05-05 21:00 -34.46662 -58.60517 245 ft 81 kts 47°
2026-05-05 21:00 -34.46284 -58.60069 151 ft 74 kts 49°
2026-05-05 21:00 -34.45924 -58.59639 36 ft 67 kts 43°
2026-05-05 21:00 -34.45683 -58.59358 22 ft 19 kts 47°
2026-05-05 21:01 -34.45693 -58.59298 22 ft 6 kts 147°
2026-05-05 21:01 -34.45734 -58.59267 22 ft 14 kts 149°
2026-05-05 21:01 -34.45797 -58.59224 22 ft 7 kts 148°
2026-05-05 21:01 -34.45827 -58.59201 22 ft 4 kts 147°
2026-05-05 21:02 -34.45840 -58.59172 22 ft 5 kts 81°
2026-05-05 21:02 -34.45819 -58.59114 22 ft 12 kts 63°
2026-05-05 21:02 -34.45799 -58.59068 22 ft 15 kts 63°
2026-05-05 21:02 -34.45755 -58.58965 22 ft 11 kts 62°
2026-05-05 21:03 -34.45727 -58.58897 22 ft 7 kts 62°
2026-05-05 21:03 -34.45707 -58.58854 22 ft 5 kts 62°
2026-05-05 21:03 -34.45694 -58.58827 22 ft 3 kts 57°
2026-05-05 21:03 -34.45671 -58.58767 22 ft 9 kts 65°
2026-05-05 21:04 -34.45647 -58.58711 22 ft 6 kts 56°
2026-05-05 21:04 -34.45639 -58.58673 22 ft 4 kts 155°
2026-05-05 21:04 -34.45666 -58.58667 22 ft 2 kts 214°
2026-05-05 21:04 -34.45684 -58.58674 22 ft 2 kts 235°
2026-05-05 21:05 -34.45681 -58.58684 22 ft 0 kts 334°
2026-05-05 21:05 -34.45679 -58.58685 22 ft 0 kts 352°
2026-05-05 21:05 -34.45672 -58.58680 22 ft 0 kts 59°